Time,TemperatureF,DewpointF,PressureIn,WindDirection,WindDirectionDegrees,WindSpeedMPH,WindSpeedGustMPH,Humidity,HourlyPrecipIn,Conditions,Clouds,dailyrainin,SoftwareType,DateUTC
2013-09-20 00:14:00,71.0,67.0,-100.00,WSW,250,16.0,20.0,87,-99.99,,,-99.99,,2013-09-20 04:14:00,
2013-09-20 00:20:00,71.0,68.0,-100.00,WSW,250,16.0,27.0,90,-99.99,,,-99.99,,2013-09-20 04:20:00,
2013-09-20 01:13:00,71.0,68.0,-100.00,WSW,250,16.0,27.0,90,-99.99,,,-99.99,,2013-09-20 05:13:00,
2013-09-20 02:00:00,69.0,67.0,-100.00,SW,230,11.0,18.0,94,-99.99,,,-99.99,,2013-09-20 06:00:00,
2013-09-20 02:42:00,69.0,67.0,-100.00,SW,230,11.0,18.0,94,-99.99,,,-99.99,,2013-09-20 06:42:00,
2013-09-20 02:50:00,69.0,67.0,-100.00,West,270,11.0,16.0,92,-99.99,,,-99.99,,2013-09-20 06:50:00,
2013-09-20 02:52:00,69.0,67.0,-100.00,SW,230,11.0,18.0,94,-99.99,,,-99.99,,2013-09-20 06:52:00,
2013-09-20 03:42:00,69.0,67.0,-100.00,West,270,11.0,16.0,92,-99.99,,,-99.99,,2013-09-20 07:42:00,
2013-09-20 04:42:00,68.0,66.0,-100.00,WSW,250,11.0,18.0,93,-99.99,,,-99.99,,2013-09-20 08:42:00,
2013-09-20 04:50:00,69.0,66.0,-100.00,West,270,18.0,25.0,91,-99.99,,,-99.99,,2013-09-20 08:50:00,
2013-09-20 05:11:00,68.0,66.0,-100.00,WSW,250,16.0,22.0,92,-99.99,,,-99.99,,2013-09-20 09:11:00,
2013-09-20 05:40:00,68.0,67.0,-100.00,West,280,11.0,16.0,96,-99.99,,,-99.99,,2013-09-20 09:40:00,
2013-09-20 05:43:00,69.0,66.0,-100.00,West,270,18.0,25.0,91,-99.99,,,-99.99,,2013-09-20 09:43:00,
2013-09-20 06:12:00,68.0,67.0,-100.00,West,280,11.0,16.0,96,-99.99,,,-99.99,,2013-09-20 10:12:00,
2013-09-20 06:23:00,68.0,67.0,-100.00,West,280,11.0,16.0,96,-99.99,,,-99.99,,2013-09-20 10:23:00,
2013-09-20 06:32:00,68.0,67.0,-100.00,West,280,11.0,16.0,96,-99.99,,,-99.99,,2013-09-20 10:32:00,
2013-09-20 07:23:00,67.0,67.0,-100.00,West,270,11.0,13.0,100,-99.99,,,-99.99,,2013-09-20 11:23:00,
2013-09-20 07:33:00,67.0,67.0,-100.00,West,270,11.0,13.0,100,-99.99,,,-99.99,,2013-09-20 11:33:00,
2013-09-20 08:00:00,68.0,68.0,-100.00,West,280,11.0,13.0,99,-99.99,,,-99.99,,2013-09-20 12:00:00,
2013-09-20 08:52:00,68.0,68.0,-100.00,West,280,11.0,13.0,99,-99.99,,,-99.99,,2013-09-20 12:52:00,
2013-09-20 09:20:00,69.0,68.0,-100.00,WNW,300,13.0,16.0,96,-99.99,,,-99.99,,2013-09-20 13:20:00,
2013-09-20 10:00:00,69.0,67.0,-100.00,NW,310,16.0,22.0,94,-99.99,,,-99.99,,2013-09-20 14:00:00,
2013-09-20 10:11:00,69.0,68.0,-100.00,WNW,300,13.0,16.0,96,-99.99,,,-99.99,,2013-09-20 14:11:00,
2013-09-20 10:42:00,69.0,67.0,-100.00,NW,310,16.0,22.0,94,-99.99,,,-99.99,,2013-09-20 14:42:00,
2013-09-20 10:50:00,67.0,67.0,-100.00,NW,320,13.0,18.0,100,-99.99,,,-99.99,,2013-09-20 14:50:00,
2013-09-20 10:52:00,69.0,67.0,-100.00,NW,310,16.0,22.0,94,-99.99,,,-99.99,,2013-09-20 14:52:00,
2013-09-20 11:44:00,67.0,67.0,-100.00,NW,320,13.0,18.0,100,-99.99,,,-99.99,,2013-09-20 15:44:00,
2013-09-20 12:10:00,67.0,67.0,-100.00,NW,320,16.0,20.0,100,-99.99,,,-99.99,,2013-09-20 16:10:00,
2013-09-20 13:50:00,67.0,67.0,-100.00,NW,310,16.0,20.0,100,-99.99,,,-99.99,,2013-09-20 17:50:00,
2013-09-20 14:22:00,67.0,67.0,-100.00,NW,310,16.0,20.0,100,-99.99,,,-99.99,,2013-09-20 18:22:00,
2013-09-20 14:32:00,67.0,67.0,-100.00,NW,310,16.0,20.0,100,-99.99,,,-99.99,,2013-09-20 18:32:00,
2013-09-20 14:42:00,67.0,67.0,-100.00,NW,310,16.0,20.0,100,-99.99,,,-99.99,,2013-09-20 18:42:00,
2013-09-20 19:10:00,65.0,65.0,-100.00,East,100,11.0,18.0,99,-99.99,,,-99.99,,2013-09-20 23:10:00,
2013-09-20 19:12:00,66.0,65.0,-100.00,West,280,18.0,22.0,96,-99.99,,,-99.99,,2013-09-20 23:12:00,
2013-09-20 22:20:00,62.0,59.0,-100.00,East,80,22.0,27.0,92,-99.99,,,-99.99,,2013-09-21 02:20:00,
2013-09-20 23:12:00,62.0,59.0,-100.00,East,80,22.0,27.0,92,-99.99,,,-99.99,,2013-09-21 03:12:00,